Weather History for KGVL - March, 2014

Change the Weather History Date:

Tuesday, March 4, 2014

  Actual Average Record
Temperature  
Mean Temperature 36 °F 50 °F  
Max Temperature 40 °F 59 °F 80 °F (1992)
Min Temperature 32 °F 40 °F 7 °F (1943)
Degree Days  
Heating Degree Days 29 16  
Month to date heating degree days 68 64  
Since 1 July heating degree days 2737 2528  
Cooling Degree Days 0 0  
Month to date cooling degree days 0 0  
Year to date cooling degree days 0 0  
Moisture  
Dew Point 22 °F    
Average Humidity 61    
Maximum Humidity 82    
Minimum Humidity 40    
Precipitation  
Precipitation 0.00 in 0.19 in 4.18 in (1966)
Month to date precipitation 0.30 0.76  
Year to date precipitation 6.29 10.66  
Sea Level Pressure  
Sea Level Pressure 30.18 in    
Wind  
Wind Speed 9 mph (East)    
Max Wind Speed 18 mph    
Max Gust Speed 26 mph    
Visibility 10 miles    
Events      
T = Trace of Precipitation, MM = Missing Value Source: NWS Daily Summary

Daily Weather History Graph

Daily Weather History Graph

Search for Another Location

Airport or City:

Trip Planner

Search our weather history database for the weather conditions in past years. The results will help you decide how hot, cold, wet, or windy it might be!

Date:

Astronomy

Mar. 04, 2014 Rise Set
Actual Time 7:00 AM EST 6:34 PM EST
Civil Twilight 6:35 AM EST 6:59 PM EST
Nautical Twilight 6:06 AM EST 7:28 PM EST
Astronomical Twilight 5:37 AM EST 7:57 PM EST
Moon 8:56 AM EST (3/4) 10:28 PM EST (3/4)
Length of Visible Light 12h 23m
Length of Day
11h 33m
Waxing Crescent, 14% of the Moon is Illuminated
Mar 4
Waxing Crescent
Mar 8
First Quarter
Mar 16
Full
Mar 23
Last Quarter
Mar 30
New

Hourly Weather History & Observations

Time (EST) Temp. Windchill Dew Point Humidity Pressure Visibility Wind Dir Wind Speed Gust Speed Precip Events Conditions
12:53 AM 36.0 °F 30.3 °F 30.0 °F 79% 30.14 in 10.0 mi East 6.9 mph - N/A   Overcast
1:02 AM 35.6 °F 27.5 °F 30.2 °F 81% 30.14 in 10.0 mi East 11.5 mph - N/A   Overcast
1:53 AM 36.0 °F 29.6 °F 30.9 °F 82% 30.15 in 10.0 mi East 8.1 mph - N/A   Overcast
2:53 AM 36.0 °F 29.0 °F 30.0 °F 79% 30.16 in 10.0 mi East 9.2 mph - N/A   Overcast
3:53 AM 35.1 °F 26.9 °F 28.9 °F 78% 30.15 in 9.0 mi East 11.5 mph - N/A   Overcast
4:53 AM 33.1 °F 23.9 °F 27.0 °F 78% 30.16 in 10.0 mi East 12.7 mph 21.9 mph N/A   Overcast
5:53 AM 32.0 °F 24.2 °F 25.0 °F 75% 30.18 in 10.0 mi East 9.2 mph - N/A   Overcast
6:53 AM 33.1 °F 24.9 °F 25.0 °F 72% 30.21 in 10.0 mi ENE 10.4 mph - N/A   Overcast
7:53 AM 33.1 °F 24.9 °F 25.0 °F 72% 30.23 in 10.0 mi ENE 10.4 mph - N/A   Overcast
8:53 AM 34.0 °F 24.2 °F 25.0 °F 70% 30.24 in 10.0 mi East 15.0 mph 19.6 mph N/A   Overcast
9:53 AM 35.1 °F 26.4 °F 19.9 °F 54% 30.23 in 10.0 mi East 12.7 mph 19.6 mph N/A   Overcast
10:53 AM 36.0 °F 28.0 °F 16.0 °F 44% 30.23 in 10.0 mi ENE 11.5 mph - N/A   Overcast
11:53 AM 37.0 °F 29.8 °F 16.0 °F 42% 30.23 in 10.0 mi East 10.4 mph - N/A   Overcast
12:53 PM 37.9 °F 32.1 °F 17.1 °F 43% 30.19 in 10.0 mi East 8.1 mph - N/A   Overcast
1:53 PM 37.9 °F 32.1 °F 17.1 °F 43% 30.18 in 10.0 mi East 8.1 mph - N/A   Overcast
2:53 PM 39.0 °F 33.4 °F 18.0 °F 43% 30.16 in 10.0 mi East 8.1 mph - N/A   Overcast
3:53 PM 39.0 °F 34.0 °F 17.1 °F 41% 30.17 in 10.0 mi SE 6.9 mph - N/A   Overcast
4:53 PM 39.0 °F 33.4 °F 18.0 °F 43% 30.17 in 10.0 mi ESE 8.1 mph - N/A   Overcast
5:53 PM 37.9 °F - 18.0 °F 45% 30.19 in 10.0 mi Calm Calm - N/A   Overcast
6:53 PM 37.0 °F 31.6 °F 18.0 °F 46% 30.17 in 10.0 mi ESE 6.9 mph - N/A   Overcast
7:53 PM 37.0 °F 31.6 °F 18.0 °F 46% 30.18 in 10.0 mi ESE 6.9 mph - N/A   Mostly Cloudy
8:53 PM 36.0 °F 30.3 °F 17.1 °F 46% 30.17 in 10.0 mi East 6.9 mph - N/A   Overcast
9:53 PM 36.0 °F 29.0 °F 17.1 °F 46% 30.16 in 10.0 mi East 9.2 mph - N/A   Overcast
10:53 PM 36.0 °F 31.1 °F 17.1 °F 46% 30.16 in 10.0 mi NE 5.8 mph - N/A   Overcast
11:53 PM 36.0 °F 32.1 °F 17.1 °F 46% 30.15 in 10.0 mi NE 4.6 mph - N/A   Mostly Cloudy